Location: Unspecified
(0.0000°N, 0.0000°E)
Time: 04:27:48
(UTC+00:00)

USA 264 - Visible Passes

Search period start: 03 June 2023 00:00
Search period end: 13 June 2023 00:00
Orbit: 1020 x 1191 km, 63.4° (Epoch: 19 May)

Date Brightness Start Highest point End Pass type
(mag) Time Alt. Az. Time Alt. Az. Time Alt. Az.
03 Jun ? 19:47:21 10° N 19:54:27 47° ENE 19:54:45 47° ENE visible
03 Jun ? 21:39:51 10° WNW 21:42:13 17° W 21:42:13 17° W visible
04 Jun ? 19:03:38 10° NNE 19:09:36 26° ENE 19:12:01 22° E visible
04 Jun ? 20:53:29 10° NW 20:59:31 38° W 20:59:31 38° W visible
05 Jun ? 18:21:29 10° NE 18:24:42 13° ENE 18:27:55 10° E visible
05 Jun ? 20:08:03 10° NNW 20:15:29 70° WSW 20:16:50 59° SSW visible
06 Jun ? 19:23:16 10° NNW 19:30:40 67° ENE 19:34:13 34° SE visible
06 Jun ? 21:17:53 10° W 21:21:28 14° WSW 21:21:43 14° WSW visible
07 Jun ? 18:39:05 10° N 18:45:51 37° ENE 18:51:38 14° SE visible
07 Jun ? 20:30:27 10° WNW 20:36:33 27° WSW 20:39:08 23° SW visible
08 Jun ? 19:44:32 10° NW 19:51:42 50° WSW 19:56:35 21° S visible
09 Jun ? 18:59:23 10° NNW 19:06:53 88° WSW 19:14:04 12° SSE visible
10 Jun ? 18:14:50 10° N 18:22:04 53° ENE 18:29:19 10° SE visible
10 Jun ? 20:07:54 10° WNW 20:12:49 19° WSW 20:17:46 10° SSW visible
11 Jun ? 19:21:18 10° NW 19:27:56 35° WSW 19:34:37 10° S visible
12 Jun ? 05:10:38 10° SSE 05:14:55 18° ESE 05:19:09 10° ENE visible
12 Jun ? 18:35:43 10° NNW 18:43:06 63° WSW 18:50:31 10° SSE visible
